Weather in Beloye Ozero

Russia / Ulyanovsk Oblast     53°01′17″N   46°58′47″E
temp.,
°C
wind,
m/s
gust,
m/s
humid.,
%
clouds,
%
prec.,
mm/h
press.,
hPa
HPBL,
m
7 may, fri
fri701:00+9s31068100 0.0 1016221
04:00+9s3972100 0.0 1016182
07:00+10s41267100 0.0 1015419
10:00+14s61150100 0.0 1015828
13:00+15s61149100 0.0 10141522
16:00+16ssw61052100 0.1 10131868
19:00+14sw3869100 1.3 1013371
22:00+10wsw41190100 2.9 1015666
8 may, sat
sat801:00+10sw498799 0.1 1015398
04:00+8wnw119785 0.1 101634
07:00+9ene129647 0.0 1016138
10:00+14sse237178 0.0 1015983
13:00+18ssw45515 0.1 10141795
16:00+19ssw45452 0.1 10131829
19:00+16ssw365899 0.0 1012340
22:00+11ssw3871100 0.0 1013168
9 may, sun
sun901:00+10s2570100 0.0 101394
04:00+11sse31064100 0.0 1012237
07:00+12sse41161100 0.0 1012375
10:00+16sse51255100 0.0 1011647
13:00+17sse51062100 0.0 1011909
16:00+19ssw51156100 0.1 10111549
19:00+15sw4875100 1.7 1011218
22:00+9nw4996100 1.8 1015314
10 may, mon
mon1001:00+8n4995100 0.0 1016289
04:00+8n61194100 0.2 1017358
07:00+8nne51196100 0.0 1020453
10:00+9nne61187100 0.1 1021510
13:00+14nne797084 0.0 1022859
16:00+15nne71066100 0.0 1022870
19:00+12nne71377100 0.0 1023568
22:00+9ne71586100 0.0 1025490
11 may, tue
tue1101:00+8ne71585100 0.0 1025424
04:00+8ne61485100 0.1 1026426
07:00+8ne61584100 0.0 1027424
10:00+12ne71271100 0.0 1027472
13:00+16ene7959100 0.0 1027722
16:00+17ene795715 0.0 1026835
19:00+15ne6116387 0.0 1027627
22:00+11ene51463100 0.0 1028385